Orbital Elements at Epoch 2459000.5 (2020-May-31.0) TDB
Reference: JPL 13 (heliocentric ecliptic J2000)
Element | Value | Uncertainty (1-sigma) | Units |
e | .2033353292242728 | 4.9838e-08 | |
a | 2.389168502573601 | 1.2229e-08 | au |
q | 1.903366138530535 | 1.245e-07 | au |
i | 2.317417273556536 | 6.6122e-06 | deg |
node | 359.8680663089386 | 0.00011137 | deg |
peri | 98.4031863088598 | 0.00011398 | deg |
M | 272.2527812061323 | 1.8996e-05 | deg |
tp | 2459329.275507745566 (2021-Apr-24.77550775) | 7.144e-05 | TDB |
period | 1348.865347703482 3.69 | 1.0356e-05 2.835e-08 | d yr |
n | .2668909840503501 | 2.0491e-09 | deg/d |
Q | 2.874970866616667 | 1.4715e-08 | au |
|
| | Orbit Determination Parameters
Additional Information
|